Year,Month,Day,Hour,Minute,Value (Times are PST for temperature in C)
2016,08,08,00,00,15.00
2016,08,08,00,01,15.10
2016,08,08,00,02,15.10
2016,08,08,00,03,15.10
2016,08,08,00,04,15.10
2016,08,08,00,05,15.10
2016,08,08,00,06,15.10
2016,08,08,00,07,15.10
2016,08,08,00,08,15.10
2016,08,08,00,09,15.10
2016,08,08,00,10,15.10
2016,08,08,00,11,15.10
2016,08,08,00,12,15.10
2016,08,08,00,13,15.10
2016,08,08,00,14,15.10
2016,08,08,00,15,15.10
2016,08,08,00,16,15.10
2016,08,08,00,17,15.10
2016,08,08,00,18,15.10
2016,08,08,00,19,15.10
2016,08,08,00,20,15.10
2016,08,08,00,21,15.10
2016,08,08,00,22,15.10
2016,08,08,00,23,15.10
2016,08,08,00,24,15.00
2016,08,08,00,25,15.10
2016,08,08,00,26,15.00
2016,08,08,00,27,15.00
2016,08,08,00,28,15.00
2016,08,08,00,29,15.00
2016,08,08,00,30,15.00
2016,08,08,00,31,15.00
2016,08,08,00,32,15.00
2016,08,08,00,33,15.00
2016,08,08,00,34,15.00
2016,08,08,00,35,15.00
2016,08,08,00,36,15.00
2016,08,08,00,37,14.90
2016,08,08,00,38,15.00
2016,08,08,00,39,14.90
2016,08,08,00,40,14.90
2016,08,08,00,41,14.90
2016,08,08,00,42,14.90
2016,08,08,00,43,14.90
2016,08,08,00,44,14.90
2016,08,08,00,45,14.90
2016,08,08,00,46,14.90
2016,08,08,00,47,14.90
2016,08,08,00,48,14.90
2016,08,08,00,49,14.90
2016,08,08,00,50,14.90
2016,08,08,00,51,14.90
2016,08,08,00,52,14.90
2016,08,08,00,53,14.90
2016,08,08,00,54,14.90
2016,08,08,00,55,14.90
2016,08,08,00,56,14.90
2016,08,08,00,57,14.90
2016,08,08,00,58,14.90
2016,08,08,00,59,14.90
2016,08,08,01,00,14.90
2016,08,08,01,01,14.90
2016,08,08,01,02,14.90
2016,08,08,01,03,14.90
2016,08,08,01,04,14.90
2016,08,08,01,05,14.90
2016,08,08,01,06,14.90
2016,08,08,01,07,14.90
2016,08,08,01,08,14.90
2016,08,08,01,09,14.90
2016,08,08,01,10,14.80
2016,08,08,01,11,14.80
2016,08,08,01,12,14.80
2016,08,08,01,13,14.80
2016,08,08,01,14,14.80
2016,08,08,01,15,14.80
2016,08,08,01,16,14.80
2016,08,08,01,17,14.80
2016,08,08,01,18,14.80
2016,08,08,01,19,14.80
2016,08,08,01,20,14.80
2016,08,08,01,21,14.80
2016,08,08,01,22,14.80
2016,08,08,01,23,14.80
2016,08,08,01,24,14.80
2016,08,08,01,25,14.80
2016,08,08,01,26,14.80
2016,08,08,01,27,14.80
2016,08,08,01,28,14.80
2016,08,08,01,29,14.80
2016,08,08,01,30,14.80
2016,08,08,01,31,14.80
2016,08,08,01,32,14.80
2016,08,08,01,33,14.80
2016,08,08,01,34,14.80
2016,08,08,01,35,14.80
2016,08,08,01,36,14.80
2016,08,08,01,37,14.80
2016,08,08,01,38,14.80
2016,08,08,01,39,14.80
2016,08,08,01,40,14.80
2016,08,08,01,41,14.80
2016,08,08,01,42,14.80
2016,08,08,01,43,14.80
2016,08,08,01,44,14.80
2016,08,08,01,45,14.80
2016,08,08,01,46,14.80
2016,08,08,01,47,14.80
2016,08,08,01,48,14.70
2016,08,08,01,49,14.80
2016,08,08,01,50,14.70
2016,08,08,01,51,14.70
2016,08,08,01,52,14.70
2016,08,08,01,53,14.70
2016,08,08,01,54,14.70
2016,08,08,01,55,14.70
2016,08,08,01,56,14.70
2016,08,08,01,57,14.70
2016,08,08,01,58,14.70
2016,08,08,01,59,14.70
2016,08,08,02,00,14.70
2016,08,08,02,01,14.70
2016,08,08,02,02,14.70
2016,08,08,02,03,14.70
2016,08,08,02,04,14.70
2016,08,08,02,05,14.70
2016,08,08,02,06,14.70
2016,08,08,02,07,14.70
2016,08,08,02,08,14.70
2016,08,08,02,09,14.70
2016,08,08,02,10,14.70
2016,08,08,02,11,14.70
2016,08,08,02,12,14.70
2016,08,08,02,13,14.70
2016,08,08,02,14,14.70
2016,08,08,02,15,14.60
2016,08,08,02,16,14.60
2016,08,08,02,17,14.60
2016,08,08,02,18,14.60
2016,08,08,02,19,14.60
2016,08,08,02,20,14.60
2016,08,08,02,21,14.60
2016,08,08,02,22,14.60
2016,08,08,02,23,14.60
2016,08,08,02,24,14.60
2016,08,08,02,25,14.60
2016,08,08,02,26,14.60
2016,08,08,02,27,14.60
2016,08,08,02,28,14.60
2016,08,08,02,29,14.60
2016,08,08,02,30,14.60
2016,08,08,02,31,14.60
2016,08,08,02,32,14.60
2016,08,08,02,33,14.60
2016,08,08,02,34,14.60
2016,08,08,02,35,14.60
2016,08,08,02,36,14.60
2016,08,08,02,37,14.60
2016,08,08,02,38,14.60
2016,08,08,02,39,14.60
2016,08,08,02,40,14.60
2016,08,08,02,41,14.60
2016,08,08,02,42,14.60
2016,08,08,02,43,14.60
2016,08,08,02,44,14.60
2016,08,08,02,45,14.60
2016,08,08,02,46,14.60
2016,08,08,02,47,14.60
2016,08,08,02,48,14.60
2016,08,08,02,49,14.60
2016,08,08,02,50,14.60
2016,08,08,02,51,14.60
2016,08,08,02,52,14.60
2016,08,08,02,53,14.60
2016,08,08,02,54,14.60
2016,08,08,02,55,14.60
2016,08,08,02,56,14.60
2016,08,08,02,57,14.60
2016,08,08,02,58,14.60
2016,08,08,02,59,14.60
2016,08,08,03,00,14.60
2016,08,08,03,01,14.60
2016,08,08,03,02,14.60
2016,08,08,03,03,14.60
2016,08,08,03,04,14.60
2016,08,08,03,05,14.50
2016,08,08,03,06,14.50
2016,08,08,03,07,14.50
2016,08,08,03,08,14.50
2016,08,08,03,09,14.50
2016,08,08,03,10,14.50
2016,08,08,03,11,14.50
2016,08,08,03,12,14.50
2016,08,08,03,13,14.50
2016,08,08,03,14,14.50
2016,08,08,03,15,14.50
2016,08,08,03,16,14.50
2016,08,08,03,17,14.50
2016,08,08,03,18,14.50
2016,08,08,03,19,14.50
2016,08,08,03,20,14.50
2016,08,08,03,21,14.50
2016,08,08,03,22,14.50
2016,08,08,03,23,14.50
2016,08,08,03,24,14.50
2016,08,08,03,25,14.50
2016,08,08,03,26,14.50
2016,08,08,03,27,14.50
2016,08,08,03,28,14.50
2016,08,08,03,29,14.50
2016,08,08,03,30,14.50
2016,08,08,03,31,14.50
2016,08,08,03,32,14.50
2016,08,08,03,33,14.50
2016,08,08,03,34,14.50
2016,08,08,03,35,14.50
2016,08,08,03,36,14.50
2016,08,08,03,37,14.50
2016,08,08,03,38,14.50
2016,08,08,03,39,14.50
2016,08,08,03,40,14.50
2016,08,08,03,41,14.50
2016,08,08,03,42,14.50
2016,08,08,03,43,14.50
2016,08,08,03,44,14.50
2016,08,08,03,45,14.50
2016,08,08,03,46,14.50
2016,08,08,03,47,14.50
2016,08,08,03,48,14.50
2016,08,08,03,49,14.50
2016,08,08,03,50,14.50
2016,08,08,03,51,14.50
2016,08,08,03,52,14.50
2016,08,08,03,53,14.50
2016,08,08,03,54,14.50
2016,08,08,03,55,14.50
2016,08,08,03,56,14.50
2016,08,08,03,57,14.50
2016,08,08,03,58,14.50
2016,08,08,03,59,14.50
2016,08,08,04,00,14.50
2016,08,08,04,01,14.50
2016,08,08,04,02,14.50
2016,08,08,04,03,14.50
2016,08,08,04,04,14.50
2016,08,08,04,05,14.50
2016,08,08,04,06,14.50
2016,08,08,04,07,14.50
2016,08,08,04,08,14.50
2016,08,08,04,09,14.50
2016,08,08,04,10,14.50
2016,08,08,04,11,14.50
2016,08,08,04,12,14.50
2016,08,08,04,13,14.50
2016,08,08,04,14,14.50
2016,08,08,04,15,14.50
2016,08,08,04,16,14.50
2016,08,08,04,17,14.50
2016,08,08,04,18,14.50
2016,08,08,04,19,14.50
2016,08,08,04,20,14.50
2016,08,08,04,21,14.50
2016,08,08,04,22,14.50
2016,08,08,04,23,14.50
2016,08,08,04,24,14.50
2016,08,08,04,25,14.50
2016,08,08,04,26,14.50
2016,08,08,04,27,14.50
2016,08,08,04,28,14.50
2016,08,08,04,29,14.50
2016,08,08,04,30,14.50
2016,08,08,04,31,14.60
2016,08,08,04,32,14.50
2016,08,08,04,33,14.60
2016,08,08,04,34,14.60
2016,08,08,04,35,14.60
2016,08,08,04,36,14.50
2016,08,08,04,37,14.50
2016,08,08,04,38,14.60
2016,08,08,04,39,14.50
2016,08,08,04,40,14.60
2016,08,08,04,41,14.60
2016,08,08,04,42,14.50
2016,08,08,04,43,14.60
2016,08,08,04,44,14.50
2016,08,08,04,45,14.50
2016,08,08,04,46,14.50
2016,08,08,04,47,14.50
2016,08,08,04,48,14.50
2016,08,08,04,49,14.50
2016,08,08,04,50,14.60
2016,08,08,04,51,14.60
2016,08,08,04,52,14.60
2016,08,08,04,53,14.60
2016,08,08,04,54,14.60
2016,08,08,04,55,14.50
2016,08,08,04,56,14.50
2016,08,08,04,57,14.50
2016,08,08,04,58,14.50
2016,08,08,04,59,14.50
2016,08,08,05,00,14.50
2016,08,08,05,01,14.50
2016,08,08,05,02,14.50
2016,08,08,05,03,14.50
2016,08,08,05,04,14.50
2016,08,08,05,05,14.50
2016,08,08,05,06,14.50
2016,08,08,05,07,14.50
2016,08,08,05,08,14.50
2016,08,08,05,09,14.50
2016,08,08,05,10,14.50
2016,08,08,05,11,14.50
2016,08,08,05,12,14.50
2016,08,08,05,13,14.50
2016,08,08,05,14,14.50
2016,08,08,05,15,14.50
2016,08,08,05,16,14.50
2016,08,08,05,17,14.50
2016,08,08,05,18,14.50
2016,08,08,05,19,14.50
2016,08,08,05,20,14.50
2016,08,08,05,21,14.50
2016,08,08,05,22,14.50
2016,08,08,05,23,14.50
2016,08,08,05,24,14.50
2016,08,08,05,25,14.50
2016,08,08,05,26,14.50
2016,08,08,05,27,14.50
2016,08,08,05,28,14.40
2016,08,08,05,29,14.50
2016,08,08,05,30,14.40
2016,08,08,05,31,14.40
2016,08,08,05,32,14.40
2016,08,08,05,33,14.40
2016,08,08,05,34,14.40
2016,08,08,05,35,14.50
2016,08,08,05,36,14.40
2016,08,08,05,37,14.40
2016,08,08,05,38,14.40
2016,08,08,05,39,14.40
2016,08,08,05,40,14.40
2016,08,08,05,41,14.40
2016,08,08,05,42,14.40
2016,08,08,05,43,14.40
2016,08,08,05,44,14.40
2016,08,08,05,45,14.40
2016,08,08,05,46,14.40
2016,08,08,05,47,14.40
2016,08,08,05,48,14.40
2016,08,08,05,49,14.40
2016,08,08,05,50,14.40
2016,08,08,05,51,14.40
2016,08,08,05,52,14.40
2016,08,08,05,53,14.40
2016,08,08,05,54,14.40
2016,08,08,05,55,14.40
2016,08,08,05,56,14.40
2016,08,08,05,57,14.40
2016,08,08,05,58,14.40
2016,08,08,05,59,14.40
2016,08,08,06,00,14.40
2016,08,08,06,01,14.40
2016,08,08,06,02,14.40
2016,08,08,06,03,14.40
2016,08,08,06,04,14.40
2016,08,08,06,05,14.40
2016,08,08,06,06,14.40
2016,08,08,06,07,14.40
2016,08,08,06,08,14.40
2016,08,08,06,09,14.40
2016,08,08,06,10,14.40
2016,08,08,06,11,14.40
2016,08,08,06,12,14.40
2016,08,08,06,13,14.40
2016,08,08,06,14,14.40
2016,08,08,06,15,14.40
2016,08,08,06,16,14.30
2016,08,08,06,17,14.30
2016,08,08,06,18,14.30
2016,08,08,06,19,14.30
2016,08,08,06,20,14.30
2016,08,08,06,21,14.30
2016,08,08,06,22,14.30
2016,08,08,06,23,14.30
2016,08,08,06,24,14.30
2016,08,08,06,25,14.30
2016,08,08,06,26,14.40
2016,08,08,06,27,14.40
2016,08,08,06,28,14.40
2016,08,08,06,29,14.40
2016,08,08,06,30,14.40
2016,08,08,06,31,14.40
2016,08,08,06,32,14.40
2016,08,08,06,33,14.40
2016,08,08,06,34,14.40
2016,08,08,06,35,14.40
2016,08,08,06,36,14.40
2016,08,08,06,37,14.40
2016,08,08,06,38,14.40
2016,08,08,06,39,14.40
2016,08,08,06,40,14.40
2016,08,08,06,41,14.40
2016,08,08,06,42,14.40
2016,08,08,06,43,14.30
2016,08,08,06,44,14.30
2016,08,08,06,45,14.30
2016,08,08,06,46,14.30
2016,08,08,06,47,14.30
2016,08,08,06,48,14.30
2016,08,08,06,49,14.30
2016,08,08,06,50,14.30
2016,08,08,06,51,14.30
2016,08,08,06,52,14.30
2016,08,08,06,53,14.30
2016,08,08,06,54,14.30
2016,08,08,06,55,14.30
2016,08,08,06,56,14.30
2016,08,08,06,57,14.30
2016,08,08,06,58,14.30
2016,08,08,06,59,14.30
2016,08,08,07,00,14.30
2016,08,08,07,01,14.30
2016,08,08,07,02,14.30
2016,08,08,07,03,14.30
2016,08,08,07,04,14.30
2016,08,08,07,05,14.30
2016,08,08,07,06,14.30
2016,08,08,07,07,14.30
2016,08,08,07,08,14.30
2016,08,08,07,09,14.40
2016,08,08,07,10,14.40
2016,08,08,07,11,14.40
2016,08,08,07,12,14.40
2016,08,08,07,13,14.40
2016,08,08,07,14,14.40
2016,08,08,07,15,14.40
2016,08,08,07,16,14.40
2016,08,08,07,17,14.40
2016,08,08,07,18,14.40
2016,08,08,07,19,14.40
2016,08,08,07,20,14.40
2016,08,08,07,21,14.40
2016,08,08,07,22,14.40
2016,08,08,07,23,14.40
2016,08,08,07,24,14.40
2016,08,08,07,25,14.40
2016,08,08,07,26,14.40
2016,08,08,07,27,14.40
2016,08,08,07,28,14.40
2016,08,08,07,29,14.40
2016,08,08,07,30,14.40
2016,08,08,07,31,14.40
2016,08,08,07,32,14.40
2016,08,08,07,33,14.40
2016,08,08,07,34,14.40
2016,08,08,07,35,14.40
2016,08,08,07,36,14.40
2016,08,08,07,37,14.40
2016,08,08,07,38,14.40
2016,08,08,07,39,14.40
2016,08,08,07,40,14.40
2016,08,08,07,41,14.50
2016,08,08,07,42,14.50
2016,08,08,07,43,14.50
2016,08,08,07,44,14.50
2016,08,08,07,45,14.50
2016,08,08,07,46,14.50
2016,08,08,07,47,14.50
2016,08,08,07,48,14.60
2016,08,08,07,49,14.60
2016,08,08,07,50,14.60
2016,08,08,07,51,14.60
2016,08,08,07,52,14.60
2016,08,08,07,53,14.60
2016,08,08,07,54,14.60
2016,08,08,07,55,14.60
2016,08,08,07,56,14.60
2016,08,08,07,57,14.60
2016,08,08,07,58,14.70
2016,08,08,07,59,14.70
2016,08,08,08,00,14.70
2016,08,08,08,01,14.70
2016,08,08,08,02,14.70
2016,08,08,08,03,14.70
2016,08,08,08,04,14.70
2016,08,08,08,05,14.70
2016,08,08,08,06,14.70
2016,08,08,08,07,14.70
2016,08,08,08,08,14.70
2016,08,08,08,09,14.70
2016,08,08,08,10,14.70
2016,08,08,08,11,14.70
2016,08,08,08,12,14.70
2016,08,08,08,13,14.70
2016,08,08,08,14,14.70
2016,08,08,08,15,14.70
2016,08,08,08,16,14.70
2016,08,08,08,17,14.70
2016,08,08,08,18,14.70
2016,08,08,08,19,14.70
2016,08,08,08,20,14.70
2016,08,08,08,21,14.70
2016,08,08,08,22,14.70
2016,08,08,08,23,14.70
2016,08,08,08,24,14.70
2016,08,08,08,25,14.70
2016,08,08,08,26,14.70
2016,08,08,08,27,14.70
2016,08,08,08,28,14.80
2016,08,08,08,29,14.80
2016,08,08,08,30,14.80
2016,08,08,08,31,14.80
2016,08,08,08,32,14.80
2016,08,08,08,33,14.80
2016,08,08,08,34,14.90
2016,08,08,08,35,14.90
2016,08,08,08,36,14.90
2016,08,08,08,37,14.90
2016,08,08,08,38,14.90
2016,08,08,08,39,14.90
2016,08,08,08,40,14.90
2016,08,08,08,41,14.90
2016,08,08,08,42,14.90
2016,08,08,08,43,14.90
2016,08,08,08,44,14.90
2016,08,08,08,45,14.90
2016,08,08,08,46,14.90
2016,08,08,08,47,14.90
2016,08,08,08,48,14.90
2016,08,08,08,49,14.90
2016,08,08,08,50,14.90
2016,08,08,08,51,15.00
2016,08,08,08,52,15.00
2016,08,08,08,53,15.00
2016,08,08,08,54,15.00
2016,08,08,08,55,15.00
2016,08,08,08,56,15.10
2016,08,08,08,57,15.10
2016,08,08,08,58,15.10
2016,08,08,08,59,15.10
2016,08,08,09,00,15.10
2016,08,08,09,01,15.10
2016,08,08,09,02,15.10
2016,08,08,09,03,15.10
2016,08,08,09,04,15.20
2016,08,08,09,05,15.20
2016,08,08,09,06,15.20
2016,08,08,09,07,15.20
2016,08,08,09,08,15.20
2016,08,08,09,09,15.20
2016,08,08,09,10,15.20
2016,08,08,09,11,15.30
2016,08,08,09,12,15.30
2016,08,08,09,13,15.30
2016,08,08,09,14,15.30
2016,08,08,09,15,15.30
2016,08,08,09,16,15.40
2016,08,08,09,17,15.40
2016,08,08,09,18,15.40
2016,08,08,09,19,15.50
2016,08,08,09,20,15.50
2016,08,08,09,21,15.50
2016,08,08,09,22,15.50
2016,08,08,09,23,15.50
2016,08,08,09,24,15.60
2016,08,08,09,25,15.60
2016,08,08,09,26,15.60
2016,08,08,09,27,15.70
2016,08,08,09,28,15.70
2016,08,08,09,29,15.80
2016,08,08,09,30,15.80
2016,08,08,09,31,15.90
2016,08,08,09,32,16.00
2016,08,08,09,33,16.10
2016,08,08,09,34,16.10
2016,08,08,09,35,16.20
2016,08,08,09,36,16.20
2016,08,08,09,37,16.20
2016,08,08,09,38,16.30
2016,08,08,09,39,16.30
2016,08,08,09,40,16.30
2016,08,08,09,41,16.30
2016,08,08,09,42,16.30
2016,08,08,09,43,16.40
2016,08,08,09,44,16.50
2016,08,08,09,45,16.50
2016,08,08,09,46,16.60
2016,08,08,09,47,16.60
2016,08,08,09,48,16.60
2016,08,08,09,49,16.60
2016,08,08,09,50,16.50
2016,08,08,09,51,16.40
2016,08,08,09,52,16.30
2016,08,08,09,53,16.30
2016,08,08,09,54,16.30
2016,08,08,09,55,16.20
2016,08,08,09,56,16.20
2016,08,08,09,57,16.20
2016,08,08,09,58,16.20
2016,08,08,09,59,16.20
2016,08,08,10,00,16.10
2016,08,08,10,01,16.00
2016,08,08,10,02,16.00
2016,08,08,10,03,15.90
2016,08,08,10,04,15.90
2016,08,08,10,05,15.90
2016,08,08,10,06,15.90
2016,08,08,10,07,15.90
2016,08,08,10,08,15.90
2016,08,08,10,09,15.90
2016,08,08,10,10,15.90
2016,08,08,10,11,15.90
2016,08,08,10,12,15.90
2016,08,08,10,13,15.90
2016,08,08,10,14,15.90
2016,08,08,10,15,16.00
2016,08,08,10,16,16.00
2016,08,08,10,17,16.00
2016,08,08,10,18,16.00
2016,08,08,10,19,16.00
2016,08,08,10,20,16.00
2016,08,08,10,21,16.00
2016,08,08,10,22,16.00
2016,08,08,10,23,16.10
2016,08,08,10,24,16.10
2016,08,08,10,25,16.10
2016,08,08,10,26,16.10
2016,08,08,10,27,16.20
2016,08,08,10,28,16.20
2016,08,08,10,29,16.30
2016,08,08,10,30,16.30
2016,08,08,10,31,16.30
2016,08,08,10,32,16.30
2016,08,08,10,33,16.30
2016,08,08,10,34,16.40
2016,08,08,10,35,16.40
2016,08,08,10,36,16.50
2016,08,08,10,37,16.50
2016,08,08,10,38,16.60
2016,08,08,10,39,16.60
2016,08,08,10,40,16.60
2016,08,08,10,41,16.60
2016,08,08,10,42,16.70
2016,08,08,10,43,16.70
2016,08,08,10,44,16.70
2016,08,08,10,45,16.80
2016,08,08,10,46,16.80
2016,08,08,10,47,16.80
2016,08,08,10,48,16.80
2016,08,08,10,49,16.80
2016,08,08,10,50,16.90
2016,08,08,10,51,16.90
2016,08,08,10,52,17.00
2016,08,08,10,53,17.00
2016,08,08,10,54,17.10
2016,08,08,10,55,17.10
2016,08,08,10,56,17.10
2016,08,08,10,57,17.10
2016,08,08,10,58,17.10
2016,08,08,10,59,17.10
2016,08,08,11,00,17.10
2016,08,08,11,01,17.10
2016,08,08,11,02,17.10
2016,08,08,11,03,17.10
2016,08,08,11,04,17.10
2016,08,08,11,05,17.10
2016,08,08,11,06,17.00
2016,08,08,11,07,16.90
2016,08,08,11,08,16.90
2016,08,08,11,09,16.90
2016,08,08,11,10,16.90
2016,08,08,11,11,16.90
2016,08,08,11,12,16.90
2016,08,08,11,13,16.90
2016,08,08,11,14,16.90
2016,08,08,11,15,17.00
2016,08,08,11,16,17.00
2016,08,08,11,17,17.00
2016,08,08,11,18,17.00
2016,08,08,11,19,17.00
2016,08,08,11,20,16.90
2016,08,08,11,21,16.90
2016,08,08,11,22,16.90
2016,08,08,11,23,16.90
2016,08,08,11,24,16.90
2016,08,08,11,25,16.90
2016,08,08,11,26,16.90
2016,08,08,11,27,16.90
2016,08,08,11,28,16.90
2016,08,08,11,29,16.90
2016,08,08,11,30,16.90
2016,08,08,11,31,16.90
2016,08,08,11,32,16.90
2016,08,08,11,33,16.90
2016,08,08,11,34,17.00
2016,08,08,11,35,17.00
2016,08,08,11,36,17.10
2016,08,08,11,37,17.10
2016,08,08,11,38,17.10
2016,08,08,11,39,17.10
2016,08,08,11,40,17.20
2016,08,08,11,41,17.20
2016,08,08,11,42,17.20
2016,08,08,11,43,17.30
2016,08,08,11,44,17.40
2016,08,08,11,45,17.40
2016,08,08,11,46,17.50
2016,08,08,11,47,17.50
2016,08,08,11,48,17.50
2016,08,08,11,49,17.50
2016,08,08,11,50,17.60
2016,08,08,11,51,17.60
2016,08,08,11,52,17.60
2016,08,08,11,53,17.70
2016,08,08,11,54,17.80
2016,08,08,11,55,17.80
2016,08,08,11,56,17.90
2016,08,08,11,57,17.90
2016,08,08,11,58,17.90
2016,08,08,11,59,18.00
2016,08,08,12,00,17.90
2016,08,08,12,01,17.90
2016,08,08,12,02,17.90
2016,08,08,12,03,17.90
2016,08,08,12,04,17.90
2016,08,08,12,05,17.80
2016,08,08,12,06,17.70
2016,08,08,12,07,17.70
2016,08,08,12,08,17.70
2016,08,08,12,09,17.60
2016,08,08,12,10,17.60
2016,08,08,12,11,17.60
2016,08,08,12,12,17.50
2016,08,08,12,13,17.50
2016,08,08,12,14,17.50
2016,08,08,12,15,17.50
2016,08,08,12,16,17.50
2016,08,08,12,17,17.60
2016,08,08,12,18,17.60
2016,08,08,12,19,17.70
2016,08,08,12,20,17.70
2016,08,08,12,21,17.70
2016,08,08,12,22,17.70
2016,08,08,12,23,17.70
2016,08,08,12,24,17.70
2016,08,08,12,25,17.70
2016,08,08,12,26,17.80
2016,08,08,12,27,17.80
2016,08,08,12,28,17.80
2016,08,08,12,29,17.80
2016,08,08,12,30,17.90
2016,08,08,12,31,17.90
2016,08,08,12,32,17.90
2016,08,08,12,33,17.90
2016,08,08,12,34,18.00
2016,08,08,12,35,18.00
2016,08,08,12,36,18.10
2016,08,08,12,37,18.10
2016,08,08,12,38,18.10
2016,08,08,12,39,18.20
2016,08,08,12,40,18.20
2016,08,08,12,41,18.20
2016,08,08,12,42,18.20
2016,08,08,12,43,18.20
2016,08,08,12,44,18.20
2016,08,08,12,45,18.20
2016,08,08,12,46,18.20
2016,08,08,12,47,18.30
2016,08,08,12,48,18.20
2016,08,08,12,49,18.30
2016,08,08,12,50,18.30
2016,08,08,12,51,18.30
2016,08,08,12,52,18.30
2016,08,08,12,53,18.30
2016,08,08,12,54,18.20
2016,08,08,12,55,18.20
2016,08,08,12,56,18.20
2016,08,08,12,57,18.10
2016,08,08,12,58,18.00
2016,08,08,12,59,18.00
2016,08,08,13,00,18.00
2016,08,08,13,01,18.00
2016,08,08,13,02,17.90
2016,08,08,13,03,17.90
2016,08,08,13,04,17.90
2016,08,08,13,05,18.00
2016,08,08,13,06,18.00
2016,08,08,13,07,18.10
2016,08,08,13,08,18.10
2016,08,08,13,09,18.10
2016,08,08,13,10,18.20
2016,08,08,13,11,18.20
2016,08,08,13,12,18.20
2016,08,08,13,13,18.20
2016,08,08,13,14,18.20
2016,08,08,13,15,18.20
2016,08,08,13,16,18.20
2016,08,08,13,17,18.20
2016,08,08,13,18,18.30
2016,08,08,13,19,18.30
2016,08,08,13,20,18.30
2016,08,08,13,21,18.30
2016,08,08,13,22,18.30
2016,08,08,13,23,18.30
2016,08,08,13,24,18.30
2016,08,08,13,25,18.30
2016,08,08,13,26,18.30
2016,08,08,13,27,18.30
2016,08,08,13,28,18.30
2016,08,08,13,29,18.30
2016,08,08,13,30,18.30
2016,08,08,13,31,18.30
2016,08,08,13,32,18.30
2016,08,08,13,33,18.40
2016,08,08,13,34,18.40
2016,08,08,13,35,18.40
2016,08,08,13,36,18.40
2016,08,08,13,37,18.40
2016,08,08,13,38,18.30
2016,08,08,13,39,18.30
2016,08,08,13,40,18.30
2016,08,08,13,41,18.40
2016,08,08,13,42,18.40
2016,08,08,13,43,18.40
2016,08,08,13,44,18.60
2016,08,08,13,45,18.70
2016,08,08,13,46,18.80
2016,08,08,13,47,19.00
2016,08,08,13,48,19.10
2016,08,08,13,49,19.20
2016,08,08,13,50,19.20
2016,08,08,13,51,19.20
2016,08,08,13,52,19.20
2016,08,08,13,53,19.20
2016,08,08,13,54,19.20
2016,08,08,13,55,19.10
2016,08,08,13,56,19.00
2016,08,08,13,57,18.90
2016,08,08,13,58,18.90
2016,08,08,13,59,18.80
2016,08,08,14,00,18.80
2016,08,08,14,01,18.80
2016,08,08,14,02,18.70
2016,08,08,14,03,18.70
2016,08,08,14,04,18.70
2016,08,08,14,05,18.70
2016,08,08,14,06,18.70
2016,08,08,14,07,18.80
2016,08,08,14,08,18.80
2016,08,08,14,09,18.80
2016,08,08,14,10,18.80
2016,08,08,14,11,18.70
2016,08,08,14,12,18.70
2016,08,08,14,13,18.60
2016,08,08,14,14,18.60
2016,08,08,14,15,18.60
2016,08,08,14,16,18.60
2016,08,08,14,17,18.60
2016,08,08,14,18,18.60
2016,08,08,14,19,18.60
2016,08,08,14,20,18.60
2016,08,08,14,21,18.60
2016,08,08,14,22,18.60
2016,08,08,14,23,18.60
2016,08,08,14,24,18.60
2016,08,08,14,25,18.60
2016,08,08,14,26,18.60
2016,08,08,14,27,18.60
2016,08,08,14,28,18.60
2016,08,08,14,29,18.50
2016,08,08,14,30,18.50
2016,08,08,14,31,18.40
2016,08,08,14,32,18.30
2016,08,08,14,33,18.30
2016,08,08,14,34,18.30
2016,08,08,14,35,18.40
2016,08,08,14,36,18.40
2016,08,08,14,37,18.40
2016,08,08,14,38,18.40
2016,08,08,14,39,18.40
2016,08,08,14,40,18.50
2016,08,08,14,41,18.50
2016,08,08,14,42,18.50
2016,08,08,14,43,18.50
2016,08,08,14,44,18.40
2016,08,08,14,45,18.40
2016,08,08,14,46,18.30
2016,08,08,14,47,18.30
2016,08,08,14,48,18.30
2016,08,08,14,49,18.20
2016,08,08,14,50,18.20
2016,08,08,14,51,18.30
2016,08,08,14,52,18.30
2016,08,08,14,53,18.20
2016,08,08,14,54,18.30
2016,08,08,14,55,18.30
2016,08,08,14,56,18.30
2016,08,08,14,57,18.30
2016,08,08,14,58,18.30
2016,08,08,14,59,18.40
2016,08,08,15,00,18.40
2016,08,08,15,01,18.40
2016,08,08,15,02,18.50
2016,08,08,15,03,18.60
2016,08,08,15,04,18.70
2016,08,08,15,05,18.70
2016,08,08,15,06,18.70
2016,08,08,15,07,18.70
2016,08,08,15,08,18.70
2016,08,08,15,09,18.80
2016,08,08,15,10,18.80
2016,08,08,15,11,18.90
2016,08,08,15,12,18.90
2016,08,08,15,13,18.90
2016,08,08,15,14,18.80
2016,08,08,15,15,18.80
2016,08,08,15,16,18.80
2016,08,08,15,17,18.80
2016,08,08,15,18,18.90
2016,08,08,15,19,18.90
2016,08,08,15,20,18.90
2016,08,08,15,21,18.80
2016,08,08,15,22,18.80
2016,08,08,15,23,18.70
2016,08,08,15,24,18.60
2016,08,08,15,25,18.50
2016,08,08,15,26,18.50
2016,08,08,15,27,18.40
2016,08,08,15,28,18.50
2016,08,08,15,29,18.50
2016,08,08,15,30,18.60
2016,08,08,15,31,18.60
2016,08,08,15,32,18.70
2016,08,08,15,33,18.70
2016,08,08,15,34,18.70
2016,08,08,15,35,18.70
2016,08,08,15,36,18.80
2016,08,08,15,37,18.70
2016,08,08,15,38,18.70
2016,08,08,15,39,18.70
2016,08,08,15,40,18.60
2016,08,08,15,41,18.60
2016,08,08,15,42,18.50
2016,08,08,15,43,18.50
2016,08,08,15,44,18.50
2016,08,08,15,45,18.50
2016,08,08,15,46,18.50
2016,08,08,15,47,18.50
2016,08,08,15,48,18.40
2016,08,08,15,49,18.40
2016,08,08,15,50,18.40
2016,08,08,15,51,18.40
2016,08,08,15,52,18.40
2016,08,08,15,53,18.40
2016,08,08,15,54,18.40
2016,08,08,15,55,18.40
2016,08,08,15,56,18.30
2016,08,08,15,57,18.30
2016,08,08,15,58,18.30
2016,08,08,15,59,18.30
2016,08,08,16,00,18.30
2016,08,08,16,01,18.30
2016,08,08,16,02,18.40
2016,08,08,16,03,18.40
2016,08,08,16,04,18.40
2016,08,08,16,05,18.40
2016,08,08,16,06,18.40
2016,08,08,16,07,18.40
2016,08,08,16,08,18.40
2016,08,08,16,09,18.40
2016,08,08,16,10,18.40
2016,08,08,16,11,18.40
2016,08,08,16,12,18.40
2016,08,08,16,13,18.50
2016,08,08,16,14,18.60
2016,08,08,16,15,18.60
2016,08,08,16,16,18.70
2016,08,08,16,17,18.70
2016,08,08,16,18,18.80
2016,08,08,16,19,18.80
2016,08,08,16,20,18.70
2016,08,08,16,21,18.70
2016,08,08,16,22,18.70
2016,08,08,16,23,18.70
2016,08,08,16,24,18.60
2016,08,08,16,25,18.70
2016,08,08,16,26,18.70
2016,08,08,16,27,18.70
2016,08,08,16,28,18.70
2016,08,08,16,29,18.70
2016,08,08,16,30,18.70
2016,08,08,16,31,18.60
2016,08,08,16,32,18.60
2016,08,08,16,33,18.50
2016,08,08,16,34,18.50
2016,08,08,16,35,18.50
2016,08,08,16,36,18.40
2016,08,08,16,37,18.50
2016,08,08,16,38,18.50
2016,08,08,16,39,18.50
2016,08,08,16,40,18.40
2016,08,08,16,41,18.40
2016,08,08,16,42,18.40
2016,08,08,16,43,18.40
2016,08,08,16,44,18.50
2016,08,08,16,45,18.50
2016,08,08,16,46,18.50
2016,08,08,16,47,18.50
2016,08,08,16,48,18.50
2016,08,08,16,49,18.50
2016,08,08,16,50,18.50
2016,08,08,16,51,18.50
2016,08,08,16,52,18.40
2016,08,08,16,53,18.50
2016,08,08,16,54,18.50
2016,08,08,16,55,18.50
2016,08,08,16,56,18.60
2016,08,08,16,57,18.70
2016,08,08,16,58,18.70
2016,08,08,16,59,18.70
2016,08,08,17,00,18.70
2016,08,08,17,01,18.70
2016,08,08,17,02,18.70
2016,08,08,17,03,18.70
2016,08,08,17,04,18.70
2016,08,08,17,05,18.70
2016,08,08,17,06,18.70
2016,08,08,17,07,18.80
2016,08,08,17,08,18.80
2016,08,08,17,09,18.80
2016,08,08,17,10,18.80
2016,08,08,17,11,18.80
2016,08,08,17,12,18.80
2016,08,08,17,13,18.80
2016,08,08,17,14,18.80
2016,08,08,17,15,18.80
2016,08,08,17,16,18.90
2016,08,08,17,17,18.90
2016,08,08,17,18,18.90
2016,08,08,17,19,18.90